Simultaneous Nadir Overpasses (SNOs) Predictions

Prediction of SNOs between METOP-B and TERRA Satellite Orbit:

Table of predicted SNOs for the next 14.0 days since TLE Epoch: 12/28/2019
Index Date (METOP-B) Time (METOP-B) Lat,Lon (METOP-B) SZA (METOP-B ) Date (TERRA) Time (TERRA) Lat,Lon (TERRA) SZA (TERRA ) Distance(km) Time Diff (sec)
1 12/30/2019 11:18:13 -81.29,-122.54 73.01 12/30/2019 11:18:33 -81.29,-122.66 73.02 2.09 20
2 12/30/2019 12:08:53 81.29, 45.20 107.04 12/30/2019 12:07:59 81.30, 45.14 107.01 1.18 54
3 01/02/2020 06:52:36 -81.29, -56.12 73.25 01/02/2020 06:52:47 -81.28, -56.26 73.27 2.41 11
4 01/02/2020 07:43:16 81.29, 111.59 106.79 01/02/2020 07:42:13 81.29, 111.52 106.75 1.17 63
5 01/05/2020 01:36:47 80.98,-167.62 105.20 01/05/2020 01:38:00 80.65,-166.30 105.07 43.56 73
6 01/05/2020 02:27:00 -81.29, 10.29 73.56 01/05/2020 02:27:02 -81.28, 10.11 73.58 3.07 2
7 01/05/2020 03:17:40 81.29, 177.96 106.48 01/05/2020 03:16:28 81.29, 177.87 106.43 1.58 72
8 01/07/2020 21:10:44 81.28, -90.99 106.05 01/07/2020 21:11:50 81.28, -91.12 106.06 2.25 66
9 01/07/2020 22:01:24 -81.29, 76.68 73.92 01/07/2020 22:01:16 -81.30, 76.83 73.91 2.67 8
10 01/10/2020 16:45:08 81.28, -24.66 105.62 01/10/2020 16:46:05 81.27, -24.84 105.62 3.32 57




NCC Satellite Simultaneous Nadir Overpasses (SNOs) Prediction Service
